Location: Newark
(46.1500°N, 9.2833°E)
Time: 02:18:09
(UTC+00:00)

OTV 5 (USA 277) - Visible Passes

Search period start: 15 October 2019 00:00
Search period end: 25 October 2019 00:00
Orbit: 310 x 324 km, 54.5° (Epoch: 08 October)

Date Brightness Start Highest point End Pass type
(mag) Time Alt. Az. Time Alt. Az. Time Alt. Az.
15 Oct ? 03:53:05 18° N 03:53:27 18° NNE 03:55:28 10° ENE visible
16 Oct ? 04:07:19 21° NNW 04:08:16 25° NNE 04:10:38 10° E visible
17 Oct ? 04:21:37 24° NW 04:22:58 46° NNE 04:25:38 10° ESE visible
18 Oct ? 03:05:07 10° ENE 03:05:07 10° ENE 03:05:10 10° ENE visible
18 Oct ? 04:36:01 23° WNW 04:37:34 73° SW 04:40:17 10° SE visible
19 Oct ? 03:19:36 15° E 03:19:36 15° E 03:20:17 10° E visible
19 Oct ? 04:50:31 17° W 04:52:01 28° SW 04:54:24 10° SSE visible
20 Oct ? 03:34:13 19° ESE 03:34:13 19° ESE 03:35:07 10° ESE visible
20 Oct ? 05:05:14 10° WSW 05:06:20 12° SW 05:07:25 10° SSW visible
21 Oct ? 03:48:58 15° SSE 03:48:58 15° SSE 03:49:33 10° SE visible
